Vertical_Velocity
1 1 1 2 2 2 1 1 2 2 2 2 2 1 1 1 0 1 1 1 -1 -1 -1 -1 -2 -2 -2 -2 -1 1 2 3 4 3 3 4 3 3 3 3 3 3 3 4 5 5 6 6 6 5 4 4 4 4 4 4 4 4 3 -0 -3 -3 -1 0 -1 -3 -2 -1 -0
2 2 2 2 2 3 3 2 2 2 2 2 2 2 2 1 0 0 0 0 -1 -1 -1 -1 -1 -1 -1 -2 -1 1 2 3 3 4 5 4 3 3 3 2 2 2 3 4 5 5 5 5 5 4 3 3 3 4 4 3 4 4 2 -2 -3 -1 -0 -1 -3 -3 -1 1 1
3 3 3 2 2 2 2 1 1 2 3 3 3 3 3 2 1 1 1 0 0 1 1 0 -0 0 1 1 0 0 1 1 3 4 5 5 5 4 3 2 2 2 2 3 4 4 4 5 5 4 2 2 2 3 3 3 4 3 1 -3 -2 -1 -1 -3 -4 -2 -0 1 1
3 3 3 2 2 2 2 1 2 3 3 3 4 4 4 3 2 2 1 2 2 1 0 1 2 2 2 2 0 -0 -0 0 2 3 5 6 6 5 3 2 2 1 1 2 3 4 5 5 5 4 2 1 2 2 3 3 4 2 -1 -2 -2 -2 -3 -5 -4 -2 -0 -0 0
3 3 3 2 3 3 3 3 3 3 3 3 4 4 3 3 2 2 1 2 1 0 0 2 2 2 1 1 0 -0 -0 0 0 1 2 4 6 6 5 3 1 1 1 1 3 4 5 6 5 4 2 1 2 2 3 4 3 1 -1 -2 -2 -3 -4 -5 -3 -2 -1 -0 1
3 3 3 3 4 4 4 4 4 3 3 2 2 2 2 1 1 0 -0 -0 0 1 1 1 1 -0 -0 -1 -0 -0 -0 0 -1 -1 -1 0 3 6 6 4 2 2 2 1 3 4 5 5 5 4 2 2 2 2 3 4 2 -0 -1 -2 -3 -4 -5 -5 -3 -1 -0 -0 0
4 4 4 3 4 4 4 4 4 4 2 1 0 -0 -0 -1 -1 -1 -1 -1 0 0 -1 -2 -2 -2 -3 -3 -2 -2 -1 -0 -1 -1 -2 -2 0 3 5 4 3 2 1 1 3 4 5 5 4 3 2 3 2 3 3 2 -0 -2 -2 -3 -4 -5 -6 -4 -2 -1 -0 -1 0
4 4 4 3 3 3 3 4 4 3 2 -0 -1 -1 -1 -1 -1 -2 -2 -1 -2 -2 -3 -3 -3 -3 -3 -3 -3 -3 -3 -2 -1 -1 -1 -2 -2 -0 1 3 2 1 1 2 3 3 3 4 3 2 2 3 2 2 1 -0 -2 -3 -3 -3 -4 -5 -5 -2 -1 -0 -0 -1 0
3 3 4 3 2 2 2 2 2 2 1 -1 -2 -2 -1 -1 -2 -2 -2 -3 -3 -3 -2 -3 -2 -2 -2 -3 -3 -4 -3 -3 -2 -2 -1 -1 -2 -2 -1 0 1 1 1 2 2 2 3 4 3 3 3 3 2 1 -0 -1 -2 -2 -3 -3 -3 -4 -3 -1 -0 0 -0 -0 -0
2 3 3 3 2 1 1 1 1 1 0 -1 -1 -1 -1 -1 -1 -1 -1 -2 -1 -0 -0 -0 1 0 -1 -3 -4 -4 -4 -3 -2 -2 -2 -1 -1 -1 -1 -1 -1 -0 0 1 2 2 3 3 3 3 3 3 2 1 1 -0 -1 -2 -2 -3 -3 -3 -2 -1 -1 -0 -0 -1 -1
2 2 2 2 2 1 1 1 1 1 1 -0 0 0 1 0 0 1 1 1 2 2 3 5 5 5 3 -0 -2 -3 -3 -2 -2 -1 -1 -1 0 0 1 0 -0 0 0 1 2 3 4 3 3 3 3 3 3 2 1 -0 -1 -1 -1 -2 -2 -2 -1 -1 -1 -1 -2 -2 -1
2 2 2 1 2 2 2 2 2 2 2 2 3 3 3 3 3 4 4 3 3 4 6 8 9 9 9 7 5 3 1 0 -0 -0 -0 -0 1 2 2 2 2 3 3 3 4 4 3 2 2 2 3 4 3 2 0 -0 -0 -1 -1 -2 -2 -1 -1 -1 -1 -2 -2 -2 -1
2 1 1 1 1 1 2 2 2 2 3 3 4 5 5 5 5 5 4 3 4 5 6 7 8 9 10 10 10 9 7 6 5 4 2 2 2 3 3 3 4 4 5 5 5 4 3 2 2 3 3 4 2 0 -0 -0 -1 -1 -2 -2 -2 -2 -2 -1 -1 -1 -1 -1 -1
1 1 1 1 1 1 1 2 2 2 2 3 3 4 4 5 5 4 3 3 3 4 5 5 5 5 6 8 9 9 8 8 8 7 7 6 5 5 5 5 5 5 5 5 6 5 4 3 3 3 2 2 0 -0 -0 0 -0 -1 -3 -3 -3 -3 -2 -1 -0 0 -0 -1 -2
1 1 0 0 0 1 1 1 1 1 1 1 2 2 2 3 3 3 2 2 2 3 4 4 3 4 4 5 5 6 6 6 6 6 7 7 6 6 5 5 5 5 4 4 4 3 2 2 2 1 1 0 -0 1 1 2 0 -1 -3 -4 -3 -2 -1 0 1 1 0 -1 -1
1 1 1 1 1 1 1 1 1 1 1 1 1 2 2 1 2 2 2 1 2 2 2 2 2 3 3 4 4 4 3 3 3 3 4 4 4 4 3 3 3 2 2 1 1 0 -0 0 0 -0 -1 -0 1 2 3 2 0 -1 -3 -3 -2 -1 0 1 1 1 0 -0 0
2 2 2 2 1 1 1 1 1 1 1 1 2 2 2 1 1 1 1 1 1 1 1 1 2 2 2 3 3 3 2 2 2 2 2 2 2 2 1 1 1 0 -0 -1 -1 -1 -1 -0 -0 -0 -0 1 2 3 3 3 0 -2 -2 -2 -1 0 1 1 1 1 0 0 -0
2 2 2 2 2 1 1 1 1 1 1 1 1 2 2 2 1 1 0 1 1 1 0 1 1 2 2 2 3 3 2 2 2 2 2 2 1 1 1 0 0 -0 -1 -1 -1 -0 0 1 1 1 1 2 3 4 4 3 0 -1 -1 -0 0 0 0 1 0 0 -0 -1 -1
2 2 1 1 1 1 1 1 1 1 1 1 1 1 2 2 2 1 1 0 1 1 1 1 1 1 1 1 2 2 2 1 1 2 2 2 2 1 1 0 0 -0 -1 -1 0 1 2 2 2 2 2 2 3 4 4 2 0 -0 -0 0 0 0 -0 -0 -0 -0 -1 -1 -0
3 2 1 1 1 0 0 1 1 1 1 1 1 1 1 2 2 2 1 0 1 1 1 1 1 1 1 1 1 1 1 1 1 1 1 2 1 1 1 1 1 0 0 0 1 2 3 3 3 2 2 3 4 4 4 2 1 0 0 0 -0 -0 -1 -0 -0 -0 -0 -0 0
2 2 2 1 1 1 1 1 1 1 1 1 1 0 -0 0 1 1 1 1 1 1 1 0 1 1 1 1 1 0 0 1 0 -0 0 1 1 1 1 2 1 1 1 1 2 2 3 2 2 2 2 3 4 5 4 2 1 0 -0 -0 -1 -1 -1 -0 0 0 0 0 0
1 1 1 1 2 2 2 1 1 0 0 1 1 0 -0 -0 -0 -0 0 1 1 1 0 0 0 0 0 1 1 0 0 0 -0 -1 -0 0 1 1 2 2 1 1 1 1 2 2 3 2 2 2 3 4 5 5 4 3 1 0 -0 -1 -1 -1 -1 -0 0 0 1 1 1
1 0 0 0 1 1 1 1 1 0 -0 -0 0 0 -0 -0 -0 -0 0 -0 0 1 1 1 1 1 0 1 1 1 1 0 -0 -0 -0 0 1 1 2 2 1 1 1 1 1 2 3 3 3 3 3 4 4 5 4 3 1 1 -0 -1 -1 -1 -0 0 0 1 1 1 1
1 1 1 -0 -1 -0 -0 0 0 -0 -0 -1 -1 -1 -0 -0 0 0 0 -0 -0 1 2 3 3 2 2 1 1 1 1 0 0 0 0 0 1 1 1 1 1 1 1 0 1 1 2 3 3 3 3 4 4 4 4 2 2 1 0 -0 -1 -0 -0 0 1 1 1 1 1
1 2 2 1 0 -1 -1 -1 -1 -1 -1 -0 -0 -1 -1 -0 -0 -0 -0 -1 -0 1 1 2 3 4 4 2 2 2 1 1 1 1 1 1 0 0 0 0 0 0 0 0 1 1 2 2 2 2 2 3 3 4 3 3 2 1 0 0 0 0 0 0 0 0 1 1 0
-1 -0 1 2 1 1 0 -0 -1 -1 -1 0 0 0 0 0 -0 -0 -1 -1 -0 0 1 2 2 3 4 3 2 2 1 1 1 1 1 1 1 0 0 -1 -1 -1 -1 -0 1 1 2 1 1 1 2 2 3 3 3 2 1 1 1 1 1 1 0 -0 -1 -1 -0 1 0
-3 -3 -2 -0 1 1 2 2 1 -0 -0 -0 0 1 1 2 1 0 -0 -1 -0 -0 0 1 1 2 2 2 1 1 1 1 1 1 1 1 1 1 0 -0 -1 -1 -1 -0 1 2 1 1 1 1 1 1 2 2 2 1 1 1 2 2 1 0 -0 -1 -1 -0 0 0 0
-4 -3 -3 -2 -1 1 2 3 2 1 1 1 1 1 1 2 2 1 1 0 -0 -0 -0 -0 1 2 2 1 0 0 1 1 1 1 1 1 1 1 0 -0 -1 -1 -1 1 1 2 2 1 1 1 0 -1 1 1 2 1 2 2 2 1 0 -0 -1 -1 -0 0 1 -0 -0
-3 -3 -3 -2 -1 0 1 2 2 2 2 2 2 1 1 2 2 2 1 1 0 -0 -0 -0 1 1 1 1 1 1 1 1 1 1 1 1 1 1 1 0 -0 -0 -0 1 2 2 2 1 2 2 1 -2 -2 -0 1 2 1 1 0 -0 -1 -1 -1 -0 1 1 1 -0 -1
-2 -2 -2 -1 -0 1 2 3 2 2 3 3 3 2 2 2 2 2 2 1 1 0 -0 0 0 0 0 1 1 1 1 1 1 1 1 1 1 1 1 1 1 -0 0 1 1 1 1 1 2 3 3 0 -2 -2 -1 0 -0 -1 -2 -2 -2 -1 -0 1 1 2 1 0 -1
-1 -1 -1 -1 -0 1 3 3 3 3 3 3 3 3 3 2 2 2 2 2 1 1 1 0 -0 -0 0 1 1 1 0 1 1 1 0 1 1 1 1 1 1 0 0 1 1 1 1 1 2 3 5 4 -1 -4 -3 -1 -1 -1 -2 -3 -2 -1 1 2 2 2 1 1 0
-2 -2 -2 -2 -1 1 2 4 3 3 3 3 3 3 3 2 3 3 3 3 2 2 1 0 -0 0 1 1 1 0 0 0 -0 -0 0 1 1 1 1 1 1 0 -0 1 1 1 1 1 2 3 5 8 2 -3 -5 -1 1 0 -1 -2 -1 0 1 2 2 2 1 1 1
-4 -3 -3 -3 -2 -1 1 3 3 3 2 2 2 2 2 2 2 3 3 3 3 2 1 1 1 0 1 1 1 1 0 -0 -1 -1 -0 0 1 1 1 1 0 -1 -1 0 0 1 1 1 1 2 5 10 7 0 -4 -2 1 1 0 -1 -1 0 1 2 2 1 1 1 1
-6 -6 -5 -5 -4 -3 -1 0 2 2 1 1 1 2 3 2 2 2 3 3 3 2 2 1 1 1 1 1 1 1 0 0 -0 -1 -1 -0 -0 0 0 -0 -1 -1 -1 -1 -0 0 1 1 1 2 4 11 13 6 -2 -4 -1 1 0 -1 -1 -0 1 1 1 1 1 1 1
-8 -9 -9 -8 -7 -5 -4 -2 -0 1 1 0 0 1 2 2 2 2 3 3 3 2 2 2 2 1 1 1 1 1 1 1 0 -0 -1 -1 -1 -1 -1 -1 -1 -1 -1 -1 -1 -0 0 1 2 1 3 10 17 11 1 -5 -3 -1 -1 -0 -0 0 0 0 1 1 1 1 1
-6 -7 -8 -9 -8 -7 -5 -3 -2 -1 0 0 0 0 1 1 1 2 2 2 2 2 2 2 2 1 1 1 1 1 1 1 1 1 0 -0 -1 -1 -1 -1 -1 -1 -1 -1 -1 -1 -0 1 1 2 4 9 16 14 6 -3 -3 -2 -1 1 0 -0 -0 0 0 1 1 1 1
-1 -1 -3 -4 -5 -5 -4 -3 -2 -1 -0 0 1 0 0 0 1 1 2 2 1 1 1 2 1 1 0 0 0 0 1 1 1 1 1 0 -1 -1 -1 -1 -1 -1 -1 -2 -2 -1 -1 0 1 2 4 7 12 14 11 4 -1 -1 -0 1 -0 -1 -0 0 0 0 -0 -0 0
-1 -0 -1 -1 -2 -2 -2 -2 -2 -1 -1 -0 1 1 0 -0 -0 0 1 1 1 1 1 2 1 1 0 0 0 0 1 1 1 1 1 1 -0 -1 -1 -1 -2 -2 -2 -2 -2 -1 -1 -0 1 2 4 4 7 11 13 10 4 1 -0 -1 -1 -1 -0 1 0 -1 -2 -2 -1
-1 -1 -1 -1 -1 -1 -1 -1 -1 -1 -1 -1 -0 1 1 0 -0 -0 0 0 0 1 1 1 1 1 1 1 0 0 0 1 1 1 1 1 1 0 -0 -1 -2 -2 -2 -2 -2 -1 -1 -0 -0 1 3 4 4 7 10 13 9 5 2 0 -0 -0 0 0 0 -1 -3 -4 -2
-1 -1 -1 -1 -1 -1 -1 -0 -0 0 0 -0 -0 0 1 1 1 0 -0 -0 -0 0 1 1 1 1 1 1 0 -0 0 0 0 0 0 0 1 1 0 -1 -1 -2 -3 -3 -2 -1 -1 -1 -0 1 3 5 4 5 9 12 11 8 4 2 1 0 -0 -0 -1 -1 -2 -3 -2
-1 -1 -1 -1 -1 -1 -1 -1 -1 0 1 1 0 0 0 1 1 1 1 0 -0 -0 0 0 1 1 1 1 0 -0 -0 0 0 0 -0 0 1 1 1 -0 -1 -2 -3 -3 -2 -1 -1 -1 -1 0 2 4 4 6 8 11 9 6 3 1 -0 -1 -1 -1 -1 -2 -3 -3 -2
Height
1449 1448 1447 1447 1447 1447 1446 1445 1445 1445 1445 1445 1446 1446 1446 1446 1445 1445 1444 1444 1444 1443 1443 1443 1443 1443 1443 1443 1444 1445 1445 1446 1447 1447 1448 1449 1450 1450 1451 1451 1452 1452 1453 1453 1454 1455 1455 1456 1457 1457 1457 1457 1457 1458 1458 1459 1460 1461 1462 1462 1463 1464 1465 1466 1466 1467 1467 1467 1468
1447 1446 1446 1445 1445 1444 1444 1443 1442 1442 1442 1442 1443 1443 1443 1443 1442 1442 1442 1442 1441 1441 1441 1441 1441 1441 1441 1441 1442 1442 1443 1443 1444 1445 1446 1446 1447 1447 1448 1448 1449 1449 1450 1451 1452 1452 1452 1453 1453 1453 1454 1454 1455 1455 1456 1456 1457 1458 1459 1460 1461 1462 1463 1463 1464 1465 1465 1466 1466
1446 1445 1444 1443 1442 1442 1441 1441 1441 1440 1440 1440 1441 1441 1441 1441 1440 1440 1439 1439 1439 1438 1438 1438 1438 1438 1438 1439 1439 1439 1440 1441 1442 1442 1443 1443 1444 1444 1445 1445 1446 1447 1447 1448 1449 1449 1450 1450 1450 1451 1451 1451 1452 1452 1453 1453 1455 1456 1457 1457 1458 1459 1460 1461 1462 1462 1463 1463 1463
1444 1443 1442 1442 1441 1440 1440 1439 1439 1439 1439 1438 1438 1438 1438 1438 1437 1437 1437 1437 1437 1437 1436 1436 1436 1436 1436 1437 1436 1437 1437 1438 1439 1440 1440 1441 1441 1441 1441 1442 1442 1443 1444 1445 1446 1446 1447 1447 1447 1447 1447 1448 1448 1449 1450 1451 1452 1453 1454 1455 1456 1457 1458 1459 1460 1460 1460 1461 1461
1442 1442 1441 1440 1439 1439 1438 1438 1437 1437 1437 1437 1437 1436 1436 1436 1436 1435 1435 1435 1434 1434 1434 1434 1434 1434 1434 1434 1434 1434 1434 1435 1436 1437 1437 1438 1438 1438 1438 1438 1439 1440 1441 1442 1442 1443 1443 1444 1444 1444 1444 1445 1445 1446 1447 1448 1449 1450 1451 1452 1453 1454 1456 1457 1457 1457 1458 1458 1459
1441 1440 1439 1439 1438 1438 1437 1437 1436 1436 1435 1435 1434 1434 1434 1433 1433 1433 1432 1432 1432 1432 1432 1432 1432 1432 1432 1432 1432 1432 1432 1432 1432 1433 1434 1435 1436 1436 1436 1435 1436 1436 1437 1438 1439 1440 1440 1441 1441 1441 1441 1442 1442 1443 1444 1445 1446 1447 1448 1450 1451 1452 1453 1454 1455 1455 1456 1456 1456
1440 1439 1438 1437 1437 1436 1436 1435 1435 1435 1434 1433 1432 1432 1432 1431 1431 1430 1430 1430 1430 1430 1429 1429 1429 1429 1429 1429 1429 1429 1429 1429 1429 1429 1430 1431 1432 1433 1433 1433 1432 1433 1433 1434 1435 1436 1437 1437 1437 1438 1438 1438 1439 1440 1441 1442 1443 1444 1446 1447 1448 1450 1451 1451 1452 1452 1453 1453 1454
1438 1437 1437 1436 1435 1435 1434 1434 1433 1433 1432 1432 1431 1430 1430 1429 1429 1428 1428 1427 1427 1427 1426 1426 1426 1425 1425 1425 1425 1425 1425 1425 1425 1426 1426 1427 1428 1429 1430 1430 1430 1430 1430 1431 1432 1432 1433 1434 1434 1435 1435 1435 1436 1436 1437 1438 1440 1442 1443 1445 1446 1447 1448 1449 1449 1450 1451 1451 1452
1437 1436 1436 1435 1434 1433 1432 1432 1432 1431 1430 1430 1429 1428 1428 1427 1427 1426 1425 1425 1424 1423 1423 1422 1422 1422 1422 1422 1422 1422 1422 1422 1422 1422 1422 1423 1424 1425 1426 1426 1427 1427 1427 1427 1428 1429 1430 1431 1431 1431 1431 1432 1432 1432 1433 1435 1437 1439 1441 1442 1444 1445 1445 1446 1447 1447 1448 1449 1449
1435 1435 1434 1434 1433 1432 1431 1431 1430 1429 1428 1428 1427 1426 1426 1425 1424 1424 1423 1422 1422 1421 1420 1419 1419 1419 1419 1419 1418 1418 1418 1418 1418 1419 1419 1419 1420 1421 1421 1422 1422 1423 1423 1424 1425 1426 1426 1427 1427 1427 1427 1428 1428 1429 1431 1433 1435 1437 1439 1440 1441 1442 1443 1443 1444 1445 1446 1446 1447
1435 1434 1433 1432 1432 1431 1430 1429 1428 1427 1427 1426 1425 1425 1424 1423 1422 1422 1421 1420 1420 1419 1418 1417 1417 1416 1416 1416 1415 1415 1415 1415 1415 1415 1415 1416 1416 1417 1417 1418 1419 1419 1420 1421 1421 1422 1422 1423 1423 1424 1424 1425 1426 1427 1428 1431 1433 1435 1436 1437 1438 1439 1440 1441 1442 1442 1443 1444 1444
1434 1433 1432 1432 1431 1430 1429 1428 1427 1426 1426 1425 1424 1423 1422 1422 1421 1420 1420 1419 1418 1417 1417 1416 1416 1415 1415 1414 1413 1413 1412 1412 1412 1412 1412 1412 1413 1413 1414 1415 1415 1416 1417 1417 1418 1418 1419 1419 1419 1420 1421 1422 1423 1424 1426 1428 1431 1432 1433 1435 1436 1437 1437 1438 1439 1440 1441 1441 1442
1433 1432 1432 1431 1430 1429 1428 1427 1426 1425 1425 1424 1423 1422 1422 1421 1420 1419 1418 1417 1416 1416 1416 1415 1415 1415 1414 1413 1413 1412 1411 1410 1410 1410 1410 1410 1410 1410 1411 1412 1412 1413 1413 1414 1414 1415 1415 1415 1416 1417 1418 1419 1420 1422 1424 1427 1428 1430 1431 1432 1433 1434 1435 1436 1437 1437 1438 1439 1439
1433 1432 1431 1430 1429 1428 1427 1426 1425 1424 1423 1423 1422 1421 1421 1420 1419 1418 1417 1416 1415 1414 1414 1414 1413 1413 1412 1412 1412 1411 1410 1410 1409 1408 1408 1408 1408 1408 1408 1408 1409 1410 1410 1411 1412 1412 1412 1413 1414 1415 1416 1417 1419 1421 1422 1424 1426 1427 1428 1429 1431 1432 1433 1434 1434 1435 1436 1436 1437
1433 1432 1431 1429 1428 1427 1426 1425 1424 1423 1422 1422 1421 1420 1419 1418 1417 1417 1416 1414 1413 1413 1412 1412 1411 1411 1410 1410 1410 1409 1409 1408 1408 1407 1407 1406 1406 1406 1406 1406 1407 1407 1408 1409 1409 1410 1411 1411 1412 1413 1414 1416 1417 1419 1421 1422 1423 1424 1425 1427 1428 1429 1431 1432 1432 1433 1433 1433 1434
1432 1431 1430 1428 1427 1426 1425 1424 1423 1422 1421 1420 1419 1418 1417 1417 1416 1415 1414 1413 1412 1411 1411 1410 1409 1408 1408 1407 1407 1407 1407 1406 1406 1405 1405 1404 1404 1404 1404 1404 1405 1405 1406 1407 1407 1408 1408 1409 1410 1411 1412 1414 1415 1417 1418 1419 1420 1422 1423 1424 1426 1427 1428 1429 1430 1430 1431 1431 1432
1431 1429 1428 1427 1426 1425 1423 1422 1421 1420 1419 1418 1417 1416 1415 1414 1413 1412 1412 1411 1410 1409 1408 1408 1407 1407 1406 1406 1405 1405 1405 1404 1403 1403 1402 1402 1402 1402 1402 1402 1402 1403 1404 1404 1405 1406 1406 1407 1408 1409 1410 1411 1413 1414 1416 1417 1418 1419 1421 1422 1423 1425 1426 1427 1427 1428 1428 1429 1430
1428 1427 1426 1425 1424 1423 1422 1420 1419 1418 1417 1416 1415 1414 1413 1412 1411 1410 1409 1408 1407 1407 1406 1406 1405 1404 1404 1403 1403 1402 1402 1402 1401 1400 1400 1400 1400 1400 1400 1400 1400 1401 1401 1402 1402 1403 1403 1404 1405 1406 1407 1409 1410 1412 1413 1414 1415 1417 1418 1420 1421 1422 1423 1424 1425 1425 1426 1427 1427
1426 1425 1424 1422 1421 1420 1419 1418 1417 1416 1415 1413 1412 1412 1411 1410 1409 1408 1407 1406 1405 1404 1404 1403 1402 1402 1401 1401 1400 1400 1399 1399 1398 1398 1398 1398 1398 1398 1398 1398 1398 1398 1398 1399 1399 1400 1401 1402 1402 1403 1405 1406 1407 1409 1411 1412 1413 1414 1416 1417 1418 1419 1420 1421 1422 1423 1423 1424 1425
1424 1423 1422 1420 1419 1418 1417 1415 1414 1413 1412 1411 1410 1409 1408 1407 1406 1405 1404 1403 1402 1402 1401 1400 1400 1399 1398 1398 1397 1397 1397 1396 1396 1396 1396 1396 1396 1396 1396 1396 1396 1396 1396 1396 1397 1397 1398 1399 1400 1401 1402 1403 1405 1407 1408 1409 1411 1412 1413 1415 1416 1417 1418 1419 1420 1420 1421 1422 1422
1422 1421 1419 1418 1417 1415 1414 1413 1412 1410 1409 1408 1407 1406 1405 1404 1403 1402 1401 1400 1400 1399 1398 1397 1397 1396 1395 1395 1394 1394 1393 1393 1393 1393 1393 1393 1393 1393 1393 1393 1393 1393 1393 1393 1394 1394 1395 1396 1397 1398 1400 1401 1403 1404 1406 1407 1408 1409 1411 1412 1413 1414 1415 1416 1417 1418 1419 1419 1420
1420 1419 1417 1416 1414 1413 1412 1410 1409 1408 1407 1406 1405 1403 1402 1401 1400 1399 1398 1397 1397 1396 1395 1394 1393 1392 1392 1392 1391 1391 1391 1390 1390 1390 1390 1390 1390 1390 1390 1390 1390 1390 1390 1390 1391 1392 1393 1394 1395 1396 1397 1399 1400 1402 1403 1405 1406 1407 1408 1410 1411 1412 1413 1414 1415 1415 1416 1417 1417
1418 1417 1415 1414 1412 1411 1410 1408 1407 1406 1404 1403 1402 1401 1400 1399 1397 1397 1396 1395 1394 1393 1392 1391 1390 1390 1389 1388 1388 1387 1387 1387 1387 1387 1387 1387 1387 1387 1387 1387 1387 1387 1387 1387 1388 1389 1391 1392 1392 1394 1395 1396 1398 1400 1401 1402 1404 1405 1406 1407 1408 1409 1410 1411 1412 1413 1413 1414 1415
1417 1415 1414 1412 1411 1409 1408 1407 1405 1404 1402 1401 1400 1398 1397 1396 1395 1394 1393 1392 1391 1390 1389 1388 1388 1387 1386 1385 1385 1384 1384 1384 1384 1384 1384 1384 1384 1384 1385 1385 1385 1385 1385 1385 1386 1387 1388 1389 1390 1392 1393 1394 1396 1397 1399 1400 1402 1402 1404 1405 1406 1407 1407 1408 1409 1410 1411 1412 1412
1415 1414 1412 1411 1409 1408 1406 1405 1403 1402 1400 1399 1397 1396 1394 1393 1392 1391 1390 1389 1388 1387 1387 1386 1385 1385 1384 1383 1382 1382 1381 1381 1381 1381 1381 1381 1381 1382 1382 1382 1382 1382 1382 1383 1384 1385 1386 1387 1388 1389 1391 1392 1394 1395 1397 1398 1399 1400 1401 1402 1403 1404 1405 1406 1407 1408 1408 1409 1410
1414 1413 1411 1410 1408 1407 1405 1403 1402 1400 1398 1397 1395 1393 1392 1391 1389 1388 1387 1387 1386 1385 1384 1383 1383 1382 1382 1381 1380 1379 1379 1378 1378 1378 1378 1378 1378 1379 1379 1379 1379 1380 1380 1381 1382 1383 1384 1385 1387 1387 1389 1390 1392 1393 1394 1396 1397 1398 1399 1400 1401 1402 1402 1403 1404 1405 1406 1407 1407
1412 1411 1410 1408 1407 1405 1403 1401 1399 1398 1396 1394 1392 1391 1389 1388 1387 1386 1385 1384 1383 1382 1382 1381 1380 1380 1379 1378 1377 1377 1376 1376 1376 1376 1376 1376 1376 1376 1376 1376 1377 1377 1377 1378 1380 1381 1382 1383 1384 1385 1386 1387 1389 1391 1392 1393 1394 1396 1397 1397 1398 1399 1400 1401 1402 1402 1403 1404 1405
1411 1409 1408 1406 1405 1403 1401 1399 1397 1396 1394 1392 1390 1389 1387 1386 1384 1383 1382 1381 1380 1380 1379 1378 1377 1377 1377 1376 1375 1374 1374 1374 1374 1374 1374 1374 1373 1373 1373 1374 1374 1374 1375 1377 1378 1379 1380 1381 1382 1383 1384 1385 1387 1388 1390 1391 1392 1393 1394 1395 1396 1397 1397 1398 1399 1400 1401 1402 1402
1408 1407 1405 1404 1402 1401 1399 1397 1395 1393 1392 1390 1388 1387 1385 1383 1382 1381 1380 1379 1378 1377 1376 1376 1375 1375 1374 1373 1372 1372 1372 1372 1372 1372 1372 1371 1371 1371 1371 1371 1372 1372 1373 1374 1376 1377 1378 1379 1380 1382 1382 1383 1384 1386 1387 1389 1390 1391 1392 1393 1393 1394 1395 1396 1397 1398 1398 1399 1400
1406 1404 1403 1401 1399 1398 1396 1395 1393 1391 1389 1387 1386 1384 1383 1381 1380 1378 1377 1376 1375 1374 1374 1373 1372 1372 1371 1370 1370 1370 1369 1369 1369 1369 1369 1369 1368 1368 1369 1369 1369 1370 1371 1372 1373 1375 1376 1377 1378 1380 1381 1381 1382 1383 1385 1387 1387 1388 1389 1390 1391 1392 1393 1394 1395 1396 1396 1397 1397
1403 1402 1400 1398 1397 1395 1393 1392 1390 1388 1387 1385 1383 1382 1380 1379 1377 1376 1375 1374 1372 1372 1371 1370 1370 1369 1368 1368 1367 1367 1367 1367 1367 1367 1366 1366 1366 1366 1367 1367 1367 1368 1368 1370 1371 1372 1374 1375 1376 1378 1379 1380 1380 1381 1382 1384 1385 1386 1387 1387 1388 1390 1391 1392 1392 1393 1394 1395 1395
1400 1398 1397 1395 1394 1392 1390 1389 1387 1386 1384 1382 1381 1379 1378 1376 1375 1374 1372 1371 1370 1369 1368 1367 1367 1366 1366 1365 1365 1365 1364 1364 1364 1364 1364 1364 1364 1364 1364 1365 1365 1366 1366 1368 1369 1370 1372 1373 1374 1376 1377 1379 1379 1379 1379 1381 1382 1383 1384 1385 1386 1387 1389 1390 1390 1391 1392 1392 1393
1397 1395 1394 1392 1391 1389 1387 1386 1384 1383 1381 1380 1378 1377 1375 1374 1372 1371 1370 1369 1367 1367 1366 1365 1364 1363 1363 1363 1362 1362 1362 1362 1361 1361 1362 1362 1362 1362 1362 1363 1363 1363 1364 1366 1367 1368 1369 1371 1372 1374 1376 1378 1378 1377 1377 1379 1380 1381 1382 1383 1384 1386 1387 1387 1388 1389 1390 1390 1391
1394 1392 1391 1389 1387 1386 1385 1383 1382 1380 1379 1377 1376 1374 1373 1372 1370 1369 1368 1367 1365 1364 1363 1362 1362 1361 1361 1360 1360 1360 1359 1359 1359 1359 1359 1359 1359 1360 1360 1360 1361 1361 1362 1363 1365 1366 1367 1369 1370 1372 1374 1376 1377 1377 1376 1377 1378 1379 1380 1381 1382 1383 1384 1385 1386 1387 1387 1388 1389
1392 1390 1388 1386 1385 1383 1382 1380 1379 1377 1376 1374 1373 1372 1371 1369 1368 1367 1365 1364 1363 1362 1361 1360 1359 1358 1358 1357 1357 1357 1357 1357 1357 1357 1357 1357 1357 1357 1357 1357 1358 1359 1360 1361 1362 1364 1365 1367 1368 1370 1372 1375 1376 1376 1375 1375 1376 1377 1378 1379 1380 1381 1382 1383 1384 1384 1385 1386 1387
1391 1389 1387 1384 1382 1381 1379 1378 1376 1374 1373 1372 1371 1369 1368 1367 1365 1364 1363 1362 1361 1359 1358 1357 1357 1356 1355 1355 1355 1355 1355 1355 1355 1355 1354 1354 1354 1355 1355 1355 1356 1357 1358 1359 1360 1362 1363 1365 1366 1368 1370 1373 1374 1375 1374 1374 1374 1375 1376 1377 1378 1379 1380 1381 1381 1382 1383 1384 1384
1390 1388 1386 1383 1381 1379 1377 1376 1374 1372 1371 1369 1368 1367 1366 1364 1363 1362 1360 1359 1358 1357 1356 1355 1355 1354 1353 1353 1353 1352 1352 1353 1353 1353 1352 1352 1352 1352 1352 1353 1354 1355 1356 1357 1358 1360 1361 1362 1364 1366 1368 1370 1372 1373 1373 1372 1373 1374 1375 1375 1376 1377 1378 1379 1379 1380 1381 1381 1382
1388 1386 1384 1382 1380 1377 1376 1374 1372 1370 1368 1367 1366 1364 1363 1362 1360 1359 1358 1357 1356 1355 1354 1353 1352 1352 1351 1351 1351 1351 1350 1351 1351 1351 1351 1351 1350 1350 1351 1351 1352 1352 1354 1355 1356 1357 1359 1360 1362 1364 1366 1367 1369 1371 1372 1372 1372 1372 1373 1374 1374 1375 1376 1377 1377 1378 1378 1379 1380
1386 1384 1382 1380 1378 1376 1374 1372 1370 1368 1366 1365 1363 1362 1361 1359 1358 1357 1356 1355 1354 1353 1352 1351 1351 1350 1349 1349 1349 1348 1348 1348 1348 1349 1349 1349 1349 1349 1349 1349 1349 1350 1351 1352 1354 1355 1357 1358 1360 1362 1364 1365 1367 1368 1370 1371 1371 1371 1372 1372 1373 1374 1374 1375 1376 1376 1377 1377 1378
1384 1382 1380 1378 1376 1374 1372 1370 1368 1366 1364 1363 1361 1360 1359 1357 1356 1355 1353 1352 1351 1350 1350 1349 1348 1348 1347 1347 1347 1347 1346 1346 1346 1347 1347 1347 1347 1347 1347 1347 1347 1348 1349 1350 1352 1353 1354 1356 1357 1359 1362 1363 1365 1367 1368 1369 1369 1369 1370 1370 1371 1372 1373 1373 1374 1375 1375 1375 1376
1382 1380 1378 1376 1374 1372 1370 1368 1366 1364 1363 1361 1359 1358 1357 1355 1354 1352 1352 1350 1349 1348 1347 1347 1347 1346 1346 1346 1345 1345 1344 1344 1344 1344 1345 1345 1345 1346 1346 1346 1346 1346 1347 1348 1349 1350 1352 1353 1355 1357 1359 1361 1362 1364 1366 1367 1367 1367 1367 1368 1369 1370 1371 1372 1372 1373 1373 1374 1374